Regional Weather Roundup
Issued by NWS

Home | Current Version | Previous Version | Graphics & Text | Print | Product List | Glossary On
Versions: 1 2 3 4 5 6 7 8 9 10 11 12 13 14 15 16 17 18 19 20 21 22 23 24 25 26 27 28 29 30 31 32 33 34 35 36 37 38 39 40 41 42 43 44 45 46 47 48 49 50
000
ASUS43 KMKX 111721
RWRWI

WISCONSIN REGIONAL WEATHER ROUNDUP
NATIONAL WEATHER SERVICE MILWAUKEE/SULLIVAN WI
1100 AM CST THU FEB 11 2016

NOTE: "FAIR" INDICATES FEW OR NO CLOUDS BELOW 12,000 FEET WITH NO
SIGNIFICANT WEATHER AND/OR OBSTRUCTIONS TO VISIBILITY.

WIZ001-002-006>008-014>016-023>028-111800-
NORTHWEST WISCONSIN

CITY           SKY/WX    TMP DP  RH WIND       PRES   REMARKS
SUPERIOR ARPT  CLOUDY     2  -7  65 SW6       30.31F WCI  -9
ASHLAND        CLOUDY     7  -1  70 W9        30.28F WCI  -7
HAYWARD        CLOUDY     2  -5  72 SW6       30.26F WCI  -9
SIREN          PTSUNNY    7  -7  54 CALM      30.30S
CUMBERLAND     SUNNY      1  -9  60 CALM      30.27S
RICE LAKE      SUNNY      5  -6  59 CALM      30.30F
CHETEK         SUNNY      4  -6  63 CALM      30.30S
LADYSMITH      CLOUDY     4   0  83 CALM      30.28F
EAU CLAIRE     SUNNY      6  -5  60 W7        30.32R WCI  -6
MENOMONIE      SUNNY     16  -5  40 W3        30.32S
NEW RICHMOND   CLOUDY     6  -7  56 CALM      30.31S
OSCEOLA        CLOUDY     7  -5  57 CALM      30.34F
$$

WIZ003>005-009-010-017-018-111800-
NORTH CENTRAL WISCONSIN

CITY           SKY/WX    TMP DP  RH WIND       PRES   REMARKS
MANITOWISH WTR CLOUDY     6  -3  66 W6        30.18S WCI  -5
ARBOR VITAE    PTSUNNY    9  -1  65 CALM      30.17S
WOODRUFF       PTSUNNY    9  -1  65 CALM      30.17S
RHINELANDER    SUNNY      9  -2  61 W8        30.18S WCI  -3
EAGLE RIVER    SUNNY     10  -2  60 N7        30.15F WCI  -2
LAND O LAKES   PTSUNNY    9   1  69 N8        30.15S WCI  -3
PHILLIPS       CLOUDY     4  -2  73 SW7       30.22S WCI  -8
TOMAHAWK       SUNNY      9  -3  60 W5        30.21S WCI   0
MEDFORD        SUNNY      5  -1  77 NW5       30.22S WCI  -4
MERRILL        SUNNY     11   1  62 SW6       30.22F WCI   2
$$

WIZ029-030-035-036-043>047-111800-
CENTRAL WISCONSIN

CITY           SKY/WX    TMP DP  RH WIND       PRES   REMARKS
WAUSAU         SUNNY     10   0  63 W8        30.23F WCI  -2
MOSINEE        SUNNY      9   0  66 CALM      30.26R
MARSHFIELD     SUNNY      5  -3  69 VRB3      30.25S
STEVENS POINT  SUNNY      9  -2  60 SW7       30.27S WCI  -2
WAUPACA        SUNNY     16   1  50 W5        30.29R WCI   9
WAUTOMA        SUNNY     13  -1  53 W6        30.31R WCI   4
WISC RAPIDS    SUNNY     10  -3  55 W10       30.30R WCI  -4
CAMP DOUGLAS   MOSUNNY   10   0  61 NW2       30.32R
$$

WIZ011>013-019>022-031-037>040-048>050-111800-
NORTHEAST WISCONSIN

CITY           SKY/WX    TMP DP  RH WIND       PRES   REMARKS
ANTIGO         SUNNY      9   0  66 W9        30.19S WCI  -5
SHAWANO        SUNNY     15   2  56 W6        30.26F WCI   6
OCONTO         SUNNY     12   0  57 W5        30.27S WCI   4
STURGEON BAY   SUNNY     10  -2  56 W10       30.26F WCI  -3
GREEN BAY      SUNNY     11   0  61 W7        30.27F WCI   0
MANITOWOC      NOT AVBL
APPLETON       SUNNY     10  -2  56 VRB5      30.26R WCI   2
CLINTONVILLE   SUNNY     14   0  52 W5        30.27S WCI   6
OSHKOSH        SUNNY      9  -1  64 W7        30.28S WCI  -2
$$

WIZ032>034-041-042-053>061-111800-
SOUTHWEST WISCONSIN

CITY           SKY/WX    TMP DP  RH WIND       PRES   REMARKS
LA CROSSE      SUNNY      9  -3  58 CALM      30.36S
SPARTA         SUNNY     10  -1  61 CALM      30.34S
VIROQUA        SUNNY      8  -3  59 CALM      30.29S
BOSCOBEL       SUNNY     13  -2  51 S3        30.36S
PRAIRIE DU CHI SUNNY     12  -1  55 CALM      30.37S
PLATTEVILLE    SUNNY     12   0  60 CALM      30.33S
$$

WIZ056-057-062-063-064-067-068-111800-
SOUTH CENTRAL WISCONSIN

CITY           SKY/WX    TMP DP  RH WIND       PRES   REMARKS
REEDSBURG      SUNNY     10  -2  57 W8        30.32S WCI  -2
BARABOO/DELLS  SUNNY      9  -3  58 W5        30.31S WCI   1
LONE ROCK      SUNNY     10  -1  61 W5        30.35R WCI   2
MINERAL POINT  SUNNY     14  -4  44 NW3       30.31R
MADISON        MOSUNNY   11  -2  56 NW7       30.32R WCI   0
MIDDLETON      SUNNY     14   1  54 NW6       30.32S WCI   5
WATERTOWN      SUNNY     12   1  62 NW8       30.31R WCI   0
MONROE         SUNNY     16   1  53 NW3       30.30S
JANESVILLE     SUNNY     16   3  57 NW9       30.32S WCI   4
$$

WIZ051-052-058>065-066-070>072-111800-
SOUTHEAST WISCONSIN

CITY           SKY/WX    TMP DP  RH WIND       PRES   REMARKS
MILWAUKEE      MOSUNNY   14  -1  51 W9        30.31R WCI   2
WAUKESHA       SUNNY      9   0  66 NW7       30.30  WCI  -3
MILWAUKEE/TIMM SUNNY    N/A N/A N/A W8        30.31R
RACINE         SUNNY     15  -1  49 N7        30.32S WCI   5
BURLINGTON     SUNNY     14   0  53 NW9       30.31S WCI   1
KENOSHA        SUNNY     14   2  58 NW7       30.31R WCI   4
FOND DU LAC    FLURRIES  12   0  58 W7        30.29S WCI   1
SHEBOYGAN      SUNNY     11  -1  58 NW7       30.28S WCI   0
WEST BEND      SUNNY     12   0  57 CALM      30.28S
JUNEAU         SUNNY     10   0  62 NW6       30.31R WCI   1
$$

LSZ147-162-111800-
LAKE SUPERIOR

STATION/POSITION TIME  TEMP    WIND        PRES    WAVE
                       AIR SEA DIR/SP/G            HT/PER
                 (UTC) (F)     (DEG/KT/KT) (MB)    (FT/S)
DEVILS ISLAND    1700   10     260/ 12/ 16 1026.2F
SAXON HARBOR     1600    8                 1025.1R
$$

LMZ867-665-643>646-111800-
LAKE MICHIGAN

STATION/POSITION TIME  TEMP    WIND        PRES    WAVE
                       AIR SEA DIR/SP/G            HT/PER
                 (UTC) (F)     (DEG/KT/KT) (MB)    (FT/S)
CHAMBERS ISLAND  1600   14     300/ 11/ 16 1023.7R
ALGOMA LAKESHORE 1511          310/  6/  9   N/A
KEWAUNEE LAKESHO 1600          300/ 12/ 16 1024.0R
SHEBOYGAN LAKESH 1700   11     330/ 11/ 13 1027.5R
PORT WASHINGTON  1600   12     300/  5/ 10 1026.8S
MILWAUKEE LAKESH 1610   12     310/  8/  9   N/A
KENOSHA   LAKESH 1700   13     330/  9/ 11 1026.4R
$$

TC  - TEMPERATURE IN CELSIUS
VSB - VISIBILITY IN STATUTE MILES
WCI - WIND CHILL INDEX
HX  - HEAT INDEX




USA.gov is the U.S. government's official web portal to all federal, state and local government web resources and services.